Weather History for Denver, CO

Change the Weather History Date:

Friday, December 14, 2012

  Actual Average (KDEN) Record (KDEN)
Temperature  
Mean Temperature 36 °F 30 °F  
Max Temperature 44 °F 42 °F 70 °F (2010)
Min Temperature 28 °F 17 °F -18 °F (2008)
Degree Days  
Heating Degree Days 29 36  
Month to date heating degree days 483  
Since 1 July heating degree days 1865  
Cooling Degree Days 0 0  
Month to date cooling degree days 0  
Year to date cooling degree days 769  
Moisture  
Dew Point 19 °F    
Average Humidity 57    
Maximum Humidity 74    
Minimum Humidity 36    
Precipitation  
Precipitation 0.00 in 0.01 in 0.34 in (1891)
Month to date precipitation 0.17  
Year to date precipitation 14.12  
Snow  
Snow 0.00 in - - ()
Month to date snowfall  
Since 1 July snowfall  
Snow Depth -    
Sea Level Pressure  
Sea Level Pressure 29.70 in    
Wind  
Wind Speed 8 mph (SW)    
Max Wind Speed 15 mph    
Max Gust Speed -    
Visibility 10 miles    
Events      
T = Trace of Precipitation, MM = Missing Value Source: NWS Daily Summary

Daily Weather History Graph

Daily Weather History Graph

Search for Another Location

Airport:

Trip Planner

Search our weather history database for the weather conditions in past years. The results will help you decide how hot, cold, wet, or windy it might be!

Date:

Astronomy

Dec. 14, 2012 Rise Set
Actual Time 7:11 AM MST 4:34 PM MST
Civil Twilight 6:41 AM MST 5:04 PM MST
Nautical Twilight 6:07 AM MST 5:38 PM MST
Astronomical Twilight 5:34 AM MST 6:11 PM MST
Moon 8:18 AM MST (12/14) 6:29 PM MST (12/14)
Length of Visible Light 10h 23m
Length of Day
9h 22m
Waxing Crescent, 3% of the Moon is Illuminated
Dec 14
Waxing Crescent
Dec 19
First Quarter
Dec 28
Full
Jan 4
Last Quarter
Jan 11
New

Hourly Weather History & Observations

Time (MST) Temp. Windchill Dew Point Humidity Pressure Visibility Wind Dir Wind Speed Gust Speed Precip Events Conditions
12:01 AM 37.4 °F 29.8 °F 17.6 °F 45% 29.87 in 10.0 mi SSW 11.5 mph - N/A   Clear
12:20 AM 35.6 °F 29.2 °F 17.6 °F 48% 29.86 in 10.0 mi South 8.1 mph - N/A   Clear
12:41 AM 32.0 °F 26.4 °F 17.6 °F 55% 29.85 in 10.0 mi South 5.8 mph - N/A   Clear
1:01 AM 32.0 °F 26.4 °F 17.6 °F 55% 29.85 in 10.0 mi South 5.8 mph - N/A   Clear
1:20 AM 30.2 °F 21.9 °F 17.6 °F 60% 29.83 in 10.0 mi South 9.2 mph - N/A   Clear
1:41 AM 35.6 °F 27.5 °F 17.6 °F 48% 29.83 in 10.0 mi SSW 11.5 mph - N/A   Clear
2:01 AM 37.4 °F 28.5 °F 15.8 °F 41% 29.83 in 10.0 mi SSW 15.0 mph - N/A   Clear
2:20 AM 39.2 °F 32.0 °F 14.0 °F 36% 29.83 in 10.0 mi SSW 11.5 mph - N/A   Clear
2:41 AM 35.6 °F 28.0 °F 15.8 °F 44% 29.83 in 10.0 mi West 10.4 mph - N/A   Clear
3:01 AM 32.0 °F 27.5 °F 17.6 °F 55% 29.83 in 10.0 mi West 4.6 mph - N/A   Clear
3:21 AM 32.0 °F 25.6 °F 17.6 °F 55% 29.83 in 10.0 mi WSW 6.9 mph - N/A   Clear
4:22 AM 32.0 °F 24.2 °F 17.6 °F 55% 29.80 in 10.0 mi West 9.2 mph - N/A   Clear
4:42 AM 32.0 °F 26.4 °F 19.4 °F 60% 29.79 in 10.0 mi West 5.8 mph - N/A   Clear
5:02 AM 32.0 °F 26.4 °F 19.4 °F 60% 29.78 in 10.0 mi West 5.8 mph - N/A   Clear
5:22 AM 33.8 °F 27.7 °F 19.4 °F 56% 29.78 in 10.0 mi WSW 6.9 mph - N/A   Clear
5:42 AM 32.0 °F 27.5 °F 19.4 °F 60% 29.77 in 10.0 mi West 4.6 mph - N/A   Clear
6:01 AM 32.0 °F 27.5 °F 19.4 °F 60% 29.76 in 10.0 mi SW 4.6 mph - N/A   Clear
6:22 AM 32.0 °F 25.6 °F 19.4 °F 60% 29.77 in 10.0 mi SSE 6.9 mph - N/A   Clear
6:42 AM 33.8 °F 28.6 °F 19.4 °F 56% 29.76 in 10.0 mi SE 5.8 mph - N/A   Scattered Clouds
6:48 AM 33.8 °F 28.6 °F 19.4 °F 56% 29.76 in 30.0 mi SE 5.8 mph - N/A   Mostly Cloudy
6:51 AM 33.8 °F 28.6 °F 19.4 °F 56% 29.76 in 10.0 mi SE 5.8 mph - N/A   Scattered Clouds
7:52 AM 32.0 °F - 19.4 °F 60% 29.73 in 50.0 mi Calm Calm - N/A   Overcast
8:55 AM 37.4 °F - 19.4 °F 48% 29.71 in 50.0 mi Calm Calm - N/A   Overcast
9:48 AM 39.2 °F 35.9 °F 23.0 °F 52% 29.69 in 50.0 mi Variable 4.6 mph - N/A   Overcast
10:54 AM 41.0 °F - 19.4 °F 42% 29.67 in 50.0 mi Calm Calm - N/A   Overcast
12:55 PM 44.6 °F 41.4 °F 21.2 °F 39% 29.56 in 50.0 mi NE 5.8 mph - N/A   Overcast
3:50 PM 41.0 °F 37.1 °F 24.8 °F 53% 29.50 in 50.0 mi North 5.8 mph - N/A   Mostly Cloudy
5:50 PM 32.0 °F 26.4 °F 19.4 °F 60% 29.51 in 10.0 mi North 5.8 mph - N/A   Mostly Cloudy
6:47 PM 28.4 °F 20.4 °F 19.4 °F 69% 29.50 in 10.0 mi WNW 8.1 mph - N/A   Mostly Cloudy
7:47 PM 28.4 °F 20.4 °F 19.4 °F 69% 29.54 in 10.0 mi WSW 8.1 mph - N/A   Mostly Cloudy
8:47 PM 28.4 °F 19.1 °F 21.2 °F 74% 29.55 in 10.0 mi WSW 10.4 mph - N/A   Mostly Cloudy
9:01 PM 30.2 °F 21.3 °F 21.2 °F 69% 29.55 in 10.0 mi West 10.4 mph - N/A   Clear
9:21 PM 28.4 °F 19.7 °F 21.2 °F 74% 29.56 in 10.0 mi WSW 9.2 mph - N/A   Clear
9:41 PM 32.0 °F 23.0 °F 21.2 °F 64% 29.56 in 10.0 mi WSW 11.5 mph - N/A   Clear
10:00 PM 32.0 °F 22.5 °F 21.2 °F 64% 29.57 in 10.0 mi WSW 12.7 mph - N/A   Clear
10:21 PM 32.0 °F 23.6 °F 21.2 °F 64% 29.57 in 10.0 mi WSW 10.4 mph - N/A   Scattered Clouds
10:41 PM 30.2 °F 21.9 °F 21.2 °F 69% 29.58 in 10.0 mi WSW 9.2 mph - N/A   Clear
11:01 PM 32.0 °F 24.8 °F 21.2 °F 64% 29.58 in 10.0 mi WSW 8.1 mph - N/A   Clear
11:22 PM 30.2 °F 22.6 °F 21.2 °F 69% 29.60 in 10.0 mi SW 8.1 mph - N/A   Clear
11:40 PM 32.0 °F 23.6 °F 19.4 °F 60% 29.60 in 10.0 mi WSW 10.4 mph - N/A   Clear